Le nostre stazioni meteo in Italia

Pubblicità
Il mio iltempo24.it
Bari, Italia (16271): Temperatura & dewpoint: 11.02.2019 14:00:00 - 17.02.2019 14:00:00 (CET)Bari, Italia (16271): velocità del vento: 11.02.2019 14:00:00 - 17.02.2019 14:00:00 (CET)Bari, Italia (16271): direzione del vento: 11.02.2019 14:00:00 - 17.02.2019 14:00:00 (CET)Bari, Italia (16271): reduced air pressure: 11.02.2019 14:00:00 - 17.02.2019 14:00:00 (CET)Bari, Italia (16271): precipitazioni: 11.02.2019 14:00:00 - 17.02.2019 14:00:00 (CET)
Data & Tempo tt [°C] td [°C] ff [km/h] ff [kn] dd ppp [hPa] rr [mm]
17.02.2019 14:00:00 - - - - - - -
17.02.2019 13:00:00 14,2 7,4 8 4 NNO 1028,6 -
17.02.2019 12:00:00 12,9 4,8 11 6 NO 1029,2 -
17.02.2019 11:00:00 11,7 5,7 18 10 NNO 1029,5 -
17.02.2019 10:00:00 10,6 5,5 13 7 NO 1029,5 -
17.02.2019 09:00:00 8,7 3,7 9 5 O 1029,4 -
17.02.2019 08:00:00 6,7 2,7 13 7 OSO 1029,4 -
17.02.2019 07:00:00 6,2 2,8 16 9 OSO 1029,0 -
17.02.2019 06:00:00 6,4 3,5 15 8 OSO 1028,9 -
17.02.2019 05:00:00 6,4 3,5 13 7 OSO 1029,1 -
17.02.2019 04:00:00 6,5 3,4 11 6 OSO 1029,2 -
17.02.2019 03:00:00 7,4 4,5 13 7 O 1029,4 -
17.02.2019 02:00:00 7,5 4,4 13 7 O 1029,6 -
17.02.2019 01:00:00 7,6 4,3 13 7 O 1029,7 -
17.02.2019 00:00:00 7,7 4,4 11 6 OSO 1030,0 -
16.02.2019 23:00:00 7,7 3,9 13 7 OSO 1030,1 -
16.02.2019 22:00:00 11,0 6,3 9 5 ONO 1030,2 -
16.02.2019 21:00:00 11,1 7,0 18 10 NO 1030,2 -
16.02.2019 20:00:00 11,3 7,2 21 11 NO 1030,2 -
16.02.2019 19:00:00 11,3 6,2 15 8 NO 1030,1 -
16.02.2019 18:00:00 - - - - - - -
16.02.2019 17:00:00 12,0 4,9 16 9 NO 1029,8 -
16.02.2019 16:00:00 12,6 5,2 21 11 NNO 1029,8 -
16.02.2019 15:00:00 13,1 4,7 18 10 NNO 1029,9 -
16.02.2019 14:00:00 13,0 5,6 15 8 NNO 1030,4 -
16.02.2019 13:00:00 12,0 6,8 21 11 NO 1030,5 -
16.02.2019 12:00:00 11,5 6,2 21 11 NO 1030,9 -
16.02.2019 11:00:00 11,0 6,1 21 11 NO 1031,0 -
16.02.2019 10:00:00 10,3 5,4 16 9 ONO 1030,6 -
16.02.2019 09:00:00 8,8 3,8 13 7 ONO 1030,5 -
16.02.2019 08:00:00 7,9 2,7 13 7 O 1030,1 -
16.02.2019 07:00:00 7,6 3,0 11 6 OSO 1029,4 -
16.02.2019 06:00:00 8,1 3,9 8 4 SE 1028,9 -
16.02.2019 05:00:00 8,6 4,2 4 2 ENE 1028,7 -
16.02.2019 04:00:00 9,2 3,1 2 1 ENE 1028,6 -
16.02.2019 03:00:00 11,0 4,2 21 11 NO 1028,8 -
16.02.2019 02:00:00 11,0 3,9 22 12 NE 1029,0 -
16.02.2019 01:00:00 11,1 3,3 28 15 NE 1029,0 -
16.02.2019 00:00:00 11,5 3,7 31 17 NO 1028,8 -
15.02.2019 23:00:00 11,4 3,1 34 18 NE 1028,4 -
15.02.2019 22:00:00 11,3 3,3 29 16 NE 1028,3 -
15.02.2019 21:00:00 11,3 3,5 34 18 NE 1028,1 -
15.02.2019 20:00:00 11,1 4,5 29 16 NO 1027,6 -
15.02.2019 19:00:00 9,9 6,2 5 3 ENE 1027,2 -
15.02.2019 18:00:00 10,0 6,3 2 1 NO 1026,9 -
15.02.2019 17:00:00 10,0 6,3 11 6 NO 1026,7 -
15.02.2019 16:00:00 9,0 5,7 28 15 ONO 1026,8 -
15.02.2019 15:00:00 11,9 2,3 34 18 ENE 1025,9 -
15.02.2019 14:00:00 12,7 5,5 34 18 N 1026,2 -
15.02.2019 13:00:00 11,5 7,8 22 12 NNO 1026,9 -
15.02.2019 12:00:00 11,1 7,2 22 12 NO 1027,5 -
15.02.2019 11:00:00 10,7 6,8 26 14 NO 1027,7 -
15.02.2019 10:00:00 9,9 5,8 24 13 NO 1028,0 -
15.02.2019 09:00:00 9,0 5,1 15 8 ONO 1028,5 -
15.02.2019 08:00:00 8,5 4,7 16 9 ONO 1028,4 -
15.02.2019 07:00:00 9,0 4,9 22 12 ONO 1028,0 -
15.02.2019 06:00:00 9,3 5,2 22 12 NO 1027,9 -
15.02.2019 05:00:00 9,5 5,4 16 9 NO 1028,0 -
15.02.2019 04:00:00 9,8 6,3 18 10 NNO 1028,4 -
15.02.2019 03:00:00 9,5 5,6 18 10 ONO 1028,8 -
15.02.2019 02:00:00 9,7 5,4 24 13 NO 1028,8 -
15.02.2019 01:00:00 10,1 5,6 24 13 ONO 1028,7 -
15.02.2019 00:00:00 10,0 5,1 21 11 NO 1028,9 -
14.02.2019 23:00:00 9,7 4,6 18 10 O 1028,8 -
14.02.2019 22:00:00 9,9 4,8 21 11 ONO 1028,9 -
14.02.2019 21:00:00 10,1 5,0 18 10 NO 1028,8 -
14.02.2019 20:00:00 10,0 5,3 16 9 O 1029,2 -
14.02.2019 19:00:00 11,1 6,8 21 11 NO 1029,4 -
14.02.2019 18:00:00 11,5 6,6 28 15 N 1029,4 -
14.02.2019 17:00:00 11,8 6,4 34 18 NO 1029,8 -
14.02.2019 16:00:00 11,9 6,8 26 14 NO 1030,3 -
14.02.2019 15:00:00 11,9 7,0 34 18 NO 1030,4 -
14.02.2019 14:00:00 11,7 7,0 44 24 NO 1030,8 -
14.02.2019 13:00:00 11,8 6,4 34 18 NNO 1031,3 -
14.02.2019 12:00:00 11,7 6,8 39 21 NO 1031,8 -
14.02.2019 11:00:00 11,7 6,8 34 18 NNO 1032,1 -
14.02.2019 10:00:00 11,8 5,6 35 19 O 1031,7 -
14.02.2019 09:00:00 11,0 5,9 37 20 NO 1031,5 -
14.02.2019 08:00:00 8,6 2,5 21 11 NNO 1031,7 -
14.02.2019 07:00:00 10,0 2,0 39 21 OSO 1031,1 0,0
14.02.2019 06:00:00 9,5 0,6 41 22 O 1031,2 -
14.02.2019 05:00:00 9,2 -0,8 41 22 NNO 1030,9 -
14.02.2019 04:00:00 8,9 -2,2 37 20 NO 1031,4 -
14.02.2019 03:00:00 8,7 -0,7 35 19 NNO 1031,4 -
14.02.2019 02:00:00 8,3 -0,8 28 15 NNO 1031,8 -
14.02.2019 01:00:00 8,1 -1,8 22 12 NO 1032,1 0,0
14.02.2019 00:00:00 8,1 -1,3 35 19 NNO 1032,6 -
13.02.2019 23:00:00 8,0 -2,2 44 24 N 1032,4 -
13.02.2019 22:00:00 8,2 -2,9 52 28 N 1032,0 -
13.02.2019 21:00:00 8,3 -4,0 59 32 NNE 1031,6 -
13.02.2019 20:00:00 8,6 -2,5 68 37 N 1031,2 -
13.02.2019 19:00:00 8,8 -3,9 67 36 N 1030,6 0,0
13.02.2019 18:00:00 8,8 -4,2 68 37 N 1029,9 -
13.02.2019 17:00:00 8,8 -6,3 70 38 N 1029,3 -
13.02.2019 16:00:00 9,0 -4,0 57 31 NNO 1029,5 -
13.02.2019 15:00:00 8,8 -7,1 57 31 N 1029,9 -
13.02.2019 14:00:00 8,9 -6,6 52 28 NNO 1029,0 -
13.02.2019 13:00:00 9,2 -3,5 52 28 NNO 1029,5 0,0
13.02.2019 12:00:00 8,6 -4,4 52 28 NNO 1030,4 -
13.02.2019 11:00:00 8,6 -5,4 68 37 N 1031,2 -
13.02.2019 10:00:00 8,1 -2,1 48 26 O 1030,2 -
13.02.2019 09:00:00 8,1 -1,3 55 30 NNO 1030,1 -
13.02.2019 08:00:00 8,0 -3,6 59 32 N 1030,2 -
13.02.2019 07:00:00 7,8 -4,1 68 37 N 1028,9 0,0
13.02.2019 06:00:00 7,7 -2,7 61 33 N 1028,3 -
13.02.2019 05:00:00 7,9 -4,4 70 38 N 1027,8 -
13.02.2019 04:00:00 8,1 -2,4 70 38 NNE 1027,7 -
13.02.2019 03:00:00 8,5 -2,9 76 41 NNE 1027,1 -
13.02.2019 02:00:00 8,9 -5,1 74 40 NNO 1026,9 -
13.02.2019 01:00:00 8,9 -4,1 74 40 N 1026,8 0,0
13.02.2019 00:00:00 8,9 -4,1 70 38 N 1027,0 -
12.02.2019 23:00:00 9,4 -0,3 63 34 N 1025,8 -
12.02.2019 22:00:00 9,2 -3,5 68 37 N 1026,2 -
12.02.2019 21:00:00 9,2 -3,5 80 43 NNE 1025,8 -
12.02.2019 20:00:00 9,7 -2,1 46 25 NNO 1024,1 -
12.02.2019 19:00:00 9,9 1,2 50 27 N 1023,4 0,0
12.02.2019 18:00:00 9,9 -1,0 44 24 N 1023,2 -
12.02.2019 17:00:00 9,8 -0,2 50 27 N 1022,2 -
12.02.2019 16:00:00 10,2 -0,7 42 23 NNO 1021,1 -
12.02.2019 15:00:00 10,5 1,5 37 20 NNO 1020,5 -
12.02.2019 14:00:00 10,6 0,8 39 21 NO 1020,0 -
12.02.2019 13:00:00 10,9 2,1 41 22 N 1019,7 0,0
12.02.2019 12:00:00 10,8 2,0 41 22 NNO 1019,8 -
12.02.2019 11:00:00 10,6 1,8 46 25 NNO 1019,4 -
12.02.2019 10:00:00 10,7 1,7 54 29 NO 1018,5 -
12.02.2019 09:00:00 11,0 2,2 63 34 NNO 1017,7 -
12.02.2019 08:00:00 10,6 2,6 52 28 NNO 1016,7 -
12.02.2019 07:00:00 10,6 3,3 46 25 NNO 1015,7 -
12.02.2019 06:00:00 10,4 2,6 44 24 NNO 1015,1 -
12.02.2019 05:00:00 10,6 3,8 48 26 NNO 1014,5 -
12.02.2019 04:00:00 10,6 3,8 46 25 NNO 1013,7 -
12.02.2019 03:00:00 10,9 4,3 41 22 N 1013,7 -
12.02.2019 02:00:00 10,5 3,9 44 24 N 1013,3 -
12.02.2019 01:00:00 7,0 4,1 21 11 OSO 1012,7 -
12.02.2019 00:00:00 8,0 4,5 28 15 NNO 1012,2 -
11.02.2019 23:00:00 8,3 4,8 26 14 NO 1011,5 -
11.02.2019 22:00:00 7,7 4,2 34 18 O 1010,7 -
11.02.2019 21:00:00 8,2 4,2 18 10 OSO 1010,8 -
11.02.2019 20:00:00 8,1 4,6 13 7 SO 1010,4 -
11.02.2019 19:00:00 7,8 4,9 13 7 SO 1010,5 -
11.02.2019 18:00:00 7,9 5,0 18 10 NO 1010,6 -
11.02.2019 17:00:00 9,2 7,3 16 9 NO 1009,7 -
11.02.2019 16:00:00 9,5 7,1 24 13 NO 1008,4 -
11.02.2019 15:00:00 11,5 7,6 34 18 NO 1007,2 -
11.02.2019 14:00:00 17,7 -0,2 29 16 OSO 1006,3 -

tt = Temperatura
td = dewpoint
ff = velocità del vento
dd = direzione del vento
ppp = reduced air pressure
rr = precipitazioni

Stazioni seguenti

WeatherPro
AMSI
MeteoEarth